ZIYUAN 1-02C (ZY 1-02C)

Last updated on Fri Dec 05 2025 00:02:31 GMT+0000 (Coordinated Universal Time)

1 38038U 11079A 25338.76810193 .00001016 00000+0 35004-3 0 9998 2 38038 98.4345 44.9285 0006841 160.5591 348.3398 14.37998695731263
UTC large
Height (km)
Speed (km/s)
/
Latitude / Longitude
Inclination (degrees)
Orbital Period (minutes)
Azimuth
Elevation
Range (km)
Doppler Factor

Next 0 passes for location: London (51.5072 / 0.1276)

Sorry there are no passes over London.